Powrót do katalogu

STARLINK-5940

AktywnyŁącznośćVLEO
NORAD 56012·PAYLOAD·🇺🇸 United States

Wystrzelony Mar 24, 2023 z Cape Canaveral Space Force Station

Loading…

Następne Przeloty (najbliższe 24 godziny)

TLE

ŚwieżeSource: CelesTrak SupGP

Epoka: Sep 14, 2026, 21:01 UTC

1 56012C 23042AC  26257.87618056  .00040718  00000+0  14751-2 0  2574
2 56012  43.0016  56.4501 0001406 272.8616  74.9961 15.27552330    14

Śledź STARLINK-5940 w czasie rzeczywistym z AllMySat

Download on the App Store